Regional Weather Roundup
Issued by NWS Sioux Falls, SD

Home | Current Version | Previous Version | Text Only | Print | Product List | Glossary On
Versions: 1 2 3 4 5 6 7 8 9 10 11 12 13 14 15 16 17 18 19 20 21 22 23 24 25 26 27 28 29 30 31 32 33 34 35 36 37 38 39 40 41 42 43 44 45 46 47 48 49 50
000
ASUS43 KFSD 262310
RWRFSD

WEATHER ROUNDUP FOR SE SOUTH DAKOTA/SW MINNESOTA/NW IOWA
NATIONAL WEATHER SERVICE SIOUX FALLS SD
500 PM CST MON JAN 26 2015

NOTE: "FAIR" INDICATES FEW OR NO CLOUDS BELOW 12,000 FEET WITH NO
SIGNIFICANT WEATHER AND OR OBSTRUCTIONS TO VISIBILITY.


SDZ038>040-050-052>070-270000-
SOUTHEAST SOUTH DAKOTA

CITY           SKY/WX    TMP DP  RH WIND       PRES   REMARKS
CHAMBERLAIN    PTCLDY    52  33  48 NW7       30.00S
HURON          CLEAR     42  35  76 NW8       29.98R
MADISON        FAIR      41  41 100 NW15      29.94R
MITCHELL       CLEAR     47  36  65 N8        29.99R
SIOUX FALLS    PTCLDY    44  36  73 NW13      29.94R
WINNER         FAIR      57  32  38 N7        30.01R
YANKTON        CLEAR     50  36  57 NW10      29.99R
$$

MNZ071-072-080-081-089-090-097-098-270000-
SOUTHWEST MINNESOTA

CITY           SKY/WX    TMP DP  RH WIND       PRES   REMARKS
FAIRMONT       CLOUDY    43  32  65 NW15      29.86R
JACKSON        CLOUDY    41  34  75 NW15G21   29.88R
LUVERNE        CLEAR     45  36  70 NW13      29.93R
MARSHALL       MOCLDY    41  32  70 N15       29.92R
MONTEVIDEO     MOCLDY    39  36  87 N9G18     29.91R
PIPESTONE      CLEAR     41  36  81 NW16      29.91R
REDWOOD FALLS  CLOUDY    41  33  73 NW12G22   29.89R
TRACY          MOCLDY    40  35  80 NW13      29.90R
WINDOM         MOCLDY    39  36  87 NW12      29.89R
WORTHINGTON    CLEAR     41  32  70 NW17G23   29.91R
$$

IAZ001>003-012>014-020>022-031-032-NEZ013-014-SDZ071-270000-
NORTHWEST IOWA

CITY           SKY/WX    TMP DP  RH WIND       PRES   REMARKS
CHEROKEE       CLEAR     46  39  77 NW9G20    29.92R
DENISON        CLEAR     48  37  66 NW15      29.92R
ESTHERVILLE    CLOUDY    41  36  82 NW12      29.88R
LE MARS        CLEAR     48  39  71 NW9G17    29.95R
ORANGE CITY    CLEAR     45  37  76 NW14      29.94R
SHELDON        CLEAR     45  37  76 NW17G25   29.91R
SIOUX CITY     CLEAR     52  37  56 NW13      29.95R
SPENCER        CLEAR     43  36  76 NW10      29.90R
STORM LAKE     CLEAR     45  37  76 NW17      29.91R
$$

ABBREVIATIONS USED IN REMARKS
   TC - TEMPERATURE IN CELSIUS
  WCI - WIND CHILL INDEX
   HX - HEAT INDEX
  VSB - VISIBILITY



USA.gov is the U.S. government's official web portal to all federal, state and local government web resources and services.